QPF
0.00 0.00 0.00 0.00 0.00 0.00 0.00 0.00 0.00 0.00 0.00 0.00 0.00 0.00 0.00 0.00 0.00 0.00 0.00 0.00 0.00 0.00 0.00 0.00 0.00 0.00 0.00 0.00 0.00 0.00 0.00 0.00 0.00 0.00 0.00 0.00 0.00 0.00 0.00 0.00 0.00 0.00 0.00 0.00
0.00 0.00 0.00 0.00 0.00 0.00 0.00 0.00 0.00 0.00 0.00 0.00 0.00 0.00 0.00 0.00 0.00 0.00 0.00 0.00 0.00 0.00 0.00 0.00 0.00 0.00 0.00 0.00 0.00 0.00 0.00 0.00 0.00 0.00 0.00 0.00 0.00 0.00 0.00 0.00 0.00 0.00 0.00 0.00
0.00 0.00 0.00 0.00 0.00 0.00 0.00 0.00 0.00 0.00 0.00 0.00 0.00 0.00 0.00 0.00 0.00 0.00 0.00 0.00 0.00 0.00 0.00 0.00 0.00 0.00 0.00 0.00 0.00 0.00 0.00 0.00 0.00 0.00 0.00 0.00 0.00 0.00 0.00 0.00 0.00 0.00 0.00 0.00
0.00 0.00 0.00 0.00 0.00 0.00 0.00 0.00 0.00 0.00 0.00 0.00 0.00 0.00 0.00 0.00 0.00 0.00 0.00 0.00 0.00 0.00 0.00 0.00 0.00 0.00 0.00 0.00 0.00 0.00 0.00 0.00 0.00 0.00 0.00 0.00 0.00 0.00 0.00 0.00 0.00 0.00 0.00 0.00
0.00 0.00 0.00 0.00 0.00 0.00 0.00 0.00 0.00 0.00 0.00 0.00 0.00 0.00 0.00 0.00 0.00 0.00 0.00 0.00 0.00 0.00 0.00 0.00 0.00 0.00 0.00 0.00 0.00 0.00 0.00 0.00 0.00 0.00 0.00 0.00 0.00 0.00 0.00 0.00 0.00 0.00 0.00 0.00
0.00 0.00 0.00 0.00 0.00 0.00 0.00 0.00 0.00 0.00 0.00 0.00 0.00 0.00 0.00 0.00 0.00 0.00 0.00 0.00 0.00 0.00 0.00 0.00 0.00 0.00 0.00 0.00 0.00 0.00 0.00 0.00 0.00 0.00 0.00 0.00 0.00 0.00 0.00 0.00 0.00 0.00 0.00 0.02
0.00 0.00 0.00 0.00 0.00 0.00 0.00 0.00 0.00 0.00 0.00 0.00 0.00 0.00 0.00 0.00 0.00 0.00 0.00 0.00 0.00 0.00 0.00 0.00 0.00 0.00 0.00 0.00 0.00 0.00 0.00 0.00 0.00 0.00 0.00 0.00 0.00 0.00 0.00 0.00 0.00 0.00 0.00 0.02
0.00 0.00 0.00 0.00 0.00 0.00 0.00 0.00 0.00 0.00 0.00 0.00 0.00 0.00 0.00 0.00 0.00 0.00 0.00 0.00 0.00 0.00 0.00 0.00 0.00 0.00 0.00 0.00 0.00 0.00 0.00 0.00 0.00 0.00 0.00 0.00 0.00 0.00 0.00 0.00 0.00 0.00 0.00 0.00
0.00 0.00 0.00 0.00 0.00 0.00 0.00 0.00 0.00 0.00 0.00 0.00 0.00 0.00 0.00 0.00 0.00 0.00 0.00 0.00 0.00 0.00 0.00 0.00 0.00 0.00 0.00 0.00 0.00 0.00 0.00 0.00 0.00 0.00 0.00 0.00 0.00 0.00 0.00 0.00 0.00 0.00 0.00 0.00
0.01 0.01 0.00 0.00 0.00 0.00 0.00 0.00 0.00 0.00 0.00 0.00 0.00 0.00 0.00 0.00 0.00 0.00 0.00 0.00 0.00 0.00 0.00 0.00 0.00 0.00 0.00 0.00 0.00 0.00 0.00 0.00 0.00 0.00 0.00 0.00 0.00 0.00 0.00 0.00 0.00 0.00 0.00 0.00
0.03 0.03 0.00 0.00 0.00 0.00 0.00 0.00 0.00 0.00 0.00 0.00 0.00 0.00 0.00 0.00 0.00 0.00 0.00 0.00 0.00 0.00 0.00 0.00 0.00 0.00 0.00 0.00 0.00 0.00 0.00 0.00 0.00 0.00 0.00 0.00 0.00 0.00 0.00 0.00 0.00 0.00 0.00 0.00
0.02 0.05 0.01 0.00 0.00 0.00 0.00 0.00 0.00 0.00 0.00 0.00 0.00 0.00 0.00 0.00 0.00 0.00 0.00 0.00 0.00 0.00 0.00 0.00 0.00 0.00 0.00 0.00 0.00 0.00 0.00 0.00 0.00 0.00 0.00 0.00 0.00 0.00 0.00 0.00 0.00 0.00 0.00 0.00
0.04 0.08 0.07 0.05 0.01 0.00 0.00 0.00 0.00 0.00 0.00 0.00 0.00 0.00 0.00 0.00 0.00 0.00 0.00 0.00 0.00 0.00 0.00 0.00 0.00 0.00 0.00 0.00 0.00 0.00 0.00 0.00 0.00 0.00 0.00 0.00 0.00 0.00 0.00 0.00 0.00 0.00 0.00 0.00
0.15 0.19 0.10 0.06 0.01 0.00 0.00 0.00 0.00 0.00 0.00 0.00 0.00 0.00 0.00 0.00 0.00 0.00 0.00 0.00 0.00 0.00 0.00 0.00 0.00 0.00 0.00 0.00 0.00 0.00 0.00 0.00 0.00 0.00 0.00 0.00 0.00 0.00 0.00 0.00 0.00 0.00 0.00 0.00
0.11 0.28 0.22 0.14 0.04 0.01 0.00 0.00 0.00 0.00 0.00 0.00 0.00 0.00 0.00 0.00 0.00 0.00 0.00 0.00 0.00 0.00 0.00 0.00 0.00 0.00 0.00 0.00 0.00 0.00 0.00 0.00 0.00 0.00 0.00 0.00 0.00 0.00 0.00 0.00 0.00 0.00 0.00 0.00
0.09 0.11 0.18 0.21 0.14 0.13 0.09 0.02 0.00 0.00 0.00 0.00 0.00 0.00 0.00 0.00 0.00 0.00 0.00 0.00 0.00 0.00 0.00 0.00 0.00 0.00 0.00 0.00 0.00 0.00 0.00 0.00 0.00 0.00 0.00 0.00 0.00 0.00 0.00 0.00 0.00 0.00 0.01 0.01
0.04 0.06 0.09 0.11 0.03 0.07 0.23 0.08 0.00 0.00 0.00 0.00 0.00 0.00 0.00 0.00 0.00 0.00 0.00 0.00 0.00 0.00 0.00 0.00 0.00 0.00 0.00 0.00 0.00 0.00 0.00 0.00 0.00 0.00 0.00 0.00 0.00 0.00 0.00 0.00 0.00 0.01 0.01 0.01
0.00 0.01 0.04 0.03 0.02 0.06 0.03 0.00 0.00 0.01 0.00 0.00 0.00 0.00 0.00 0.00 0.00 0.00 0.00 0.00 0.00 0.00 0.00 0.00 0.00 0.00 0.00 0.00 0.00 0.00 0.00 0.00 0.00 0.00 0.00 0.00 0.00 0.00 0.00 0.00 0.00 0.00 0.00 0.01
0.00 0.00 0.02 0.01 0.01 0.01 0.00 0.00 0.00 0.00 0.00 0.00 0.00 0.00 0.00 0.00 0.00 0.00 0.00 0.00 0.00 0.00 0.00 0.00 0.00 0.00 0.00 0.00 0.00 0.00 0.00 0.00 0.00 0.00 0.00 0.00 0.00 0.00 0.00 0.00 0.00 0.00 0.00 0.00
0.00 0.00 0.01 0.02 0.03 0.01 0.00 0.00 0.00 0.00 0.00 0.00 0.00 0.00 0.00 0.00 0.00 0.00 0.00 0.00 0.00 0.00 0.00 0.00 0.00 0.00 0.00 0.00 0.00 0.00 0.00 0.00 0.00 0.00 0.00 0.00 0.00 0.00 0.00 0.00 0.00 0.00 0.00 0.00
0.00 0.00 0.01 0.02 0.04 0.01 0.00 0.00 0.00 0.00 0.00 0.00 0.00 0.00 0.00 0.00 0.00 0.00 0.00 0.00 0.00 0.00 0.00 0.00 0.00 0.00 0.00 0.00 0.00 0.00 0.00 0.00 0.00 0.00 0.00 0.00 0.00 0.00 0.00 0.00 0.00 0.00 0.00 0.00
0.00 0.00 0.00 0.01 0.02 0.03 0.00 0.00 0.00 0.00 0.00 0.00 0.00 0.00 0.00 0.00 0.00 0.00 0.00 0.00 0.00 0.00 0.00 0.00 0.00 0.00 0.00 0.00 0.00 0.00 0.00 0.00 0.00 0.00 0.01 0.02 0.02 0.01 0.01 0.00 0.00 0.00 0.00 0.00
0.00 0.00 0.00 0.00 0.00 0.00 0.00 0.00 0.00 0.00 0.00 0.00 0.00 0.00 0.00 0.00 0.00 0.00 0.00 0.00 0.00 0.00 0.00 0.00 0.00 0.00 0.00 0.00 0.00 0.00 0.00 0.00 0.00 0.03 0.05 0.06 0.04 0.02 0.00 0.00 0.00 0.00 0.00 0.01
0.00 0.00 0.00 0.00 0.00 0.00 0.00 0.00 0.00 0.00 0.00 0.00 0.00 0.00 0.00 0.00 0.00 0.00 0.00 0.00 0.00 0.00 0.00 0.00 0.00 0.00 0.00 0.00 0.00 0.00 0.00 0.01 0.04 0.06 0.06 0.04 0.03 0.02 0.01 0.00 0.00 0.00 0.01 0.02
0.00 0.00 0.00 0.00 0.00 0.00 0.00 0.00 0.00 0.00 0.00 0.00 0.00 0.00 0.00 0.00 0.00 0.00 0.00 0.00 0.00 0.00 0.00 0.00 0.00 0.00 0.00 0.00 0.00 0.01 0.03 0.04 0.06 0.06 0.04 0.03 0.02 0.02 0.01 0.02 0.02 0.02 0.02 0.02
0.00 0.00 0.00 0.00 0.00 0.00 0.00 0.00 0.00 0.00 0.00 0.00 0.00 0.00 0.00 0.00 0.00 0.00 0.00 0.00 0.00 0.00 0.00 0.00 0.00 0.00 0.00 0.00 0.00 0.01 0.01 0.03 0.03 0.02 0.02 0.01 0.01 0.01 0.01 0.01 0.02 0.04 0.03 0.04
MSLP
1010.51 1010.77 1010.25 1009.68 1010.35 1010.33 1010.13 1010.28 1010.06 1009.08 1008.26 1008.07 1007.76 1007.70 1007.09 1006.80 1006.77 1006.65 1006.24 1006.06 1005.66 1005.44 1004.07 1004.33 1004.71 1004.77 1004.80 1005.54 1006.16 1006.70 1007.37 1007.88 1009.00 1009.64 1010.31 1010.91 1010.96 1011.47 1011.97 1012.21 1012.45 1012.92 1013.42 1013.89
1011.04 1009.60 1008.86 1009.96 1010.07 1010.25 1010.31 1010.18 1009.82 1009.59 1008.72 1008.68 1008.13 1007.61 1006.93 1006.28 1005.78 1005.71 1005.28 1005.02 1004.83 1004.68 1004.19 1003.67 1003.79 1004.47 1004.71 1004.66 1005.09 1006.00 1006.42 1007.13 1007.69 1008.20 1008.48 1009.40 1010.07 1010.85 1011.32 1011.78 1011.95 1012.27 1012.67 1013.08
1009.66 1007.85 1009.29 1009.29 1009.61 1009.93 1009.67 1009.57 1009.58 1009.81 1009.15 1008.36 1008.39 1007.08 1006.62 1005.25 1004.89 1004.56 1004.27 1004.03 1003.97 1004.00 1003.99 1003.47 1003.78 1003.86 1004.28 1004.80 1005.01 1005.18 1005.52 1005.78 1006.56 1007.27 1008.36 1009.16 1009.91 1010.58 1011.07 1011.06 1011.26 1011.40 1011.80 1012.28
1009.14 1008.71 1008.52 1008.58 1008.44 1009.01 1008.77 1008.64 1009.29 1009.68 1010.02 1009.09 1008.49 1006.99 1005.98 1004.68 1004.27 1004.08 1003.64 1003.88 1003.49 1003.39 1003.38 1003.39 1003.42 1003.60 1003.85 1003.75 1003.85 1004.38 1004.82 1005.18 1005.72 1006.91 1007.56 1008.06 1008.32 1009.10 1009.10 1009.53 1010.30 1010.80 1011.08 1011.48
1007.60 1007.62 1007.46 1007.63 1007.04 1008.12 1007.34 1008.30 1008.86 1009.53 1009.53 1009.51 1008.73 1008.41 1004.25 1004.28 1003.95 1003.09 1003.10 1002.94 1002.67 1002.71 1003.05 1002.82 1002.88 1002.85 1002.54 1002.91 1003.33 1003.56 1004.18 1004.88 1005.25 1005.85 1006.73 1007.42 1007.99 1008.13 1008.45 1009.04 1009.70 1010.23 1010.54 1010.73
1007.70 1007.35 1007.17 1006.65 1007.11 1007.25 1007.36 1008.01 1008.74 1009.14 1009.40 1009.23 1007.20 1007.86 1002.91 1003.71 1002.79 1002.40 1002.17 1002.02 1001.89 1001.91 1001.81 1002.15 1002.25 1002.30 1002.26 1002.56 1002.69 1003.26 1003.73 1004.28 1004.77 1005.35 1006.11 1006.74 1007.17 1007.72 1008.28 1008.74 1009.25 1009.72 1009.98 1010.33
1007.77 1006.92 1006.53 1006.41 1006.52 1006.97 1007.22 1007.89 1008.72 1009.18 1009.15 1006.87 1006.11 1006.68 1002.59 1001.69 1001.58 1001.08 1001.21 1001.24 1001.12 1001.11 1001.39 1001.63 1001.86 1002.07 1002.20 1002.19 1002.22 1002.78 1003.25 1003.90 1004.47 1004.94 1005.60 1006.03 1006.50 1007.14 1007.54 1008.05 1008.58 1009.19 1009.61 1009.89
1007.63 1006.90 1006.17 1005.44 1005.18 1005.71 1006.01 1006.24 1006.64 1006.99 1006.94 1005.75 1005.92 1004.07 1000.35 1000.73 1001.01 1000.53 1000.63 1000.56 1000.67 1000.84 1001.07 1001.26 1001.44 1001.70 1001.77 1001.90 1001.92 1002.27 1002.67 1003.57 1004.19 1004.55 1004.99 1005.46 1005.95 1006.53 1006.98 1007.40 1007.81 1008.22 1008.60 1008.86
1007.01 1005.97 1005.12 1004.77 1005.03 1005.53 1004.93 1005.86 1004.58 1005.85 1005.86 1005.62 1004.28 1002.74 1001.50 1000.76 1000.30 1000.12 1000.15 1000.35 1000.59 1000.36 1000.49 1000.42 1000.64 1001.23 1001.47 1001.81 1001.58 1001.55 1002.27 1003.22 1003.77 1004.02 1004.70 1005.25 1005.65 1006.09 1006.46 1006.85 1007.26 1007.58 1007.91 1008.32
1006.95 1006.24 1005.02 1004.45 1004.66 1004.72 1004.39 1004.07 1005.22 1005.55 1005.50 1005.20 1003.92 1002.62 1001.20 1000.30 1000.33 999.95 999.82 999.76 999.88 999.76 999.53 999.60 999.96 1000.53 1000.86 1001.39 1001.72 1001.80 1002.44 1003.00 1003.48 1003.99 1004.43 1004.94 1005.40 1005.73 1006.16 1006.69 1007.07 1007.36 1007.70 1008.12
1007.88 1006.99 1005.62 1004.78 1004.28 1003.57 1004.18 1004.30 1004.42 1004.34 1004.70 1004.42 1003.85 1001.11 1000.51 1000.14 999.97 999.72 999.53 999.37 999.70 999.70 999.33 999.20 999.25 999.81 1000.63 1001.25 1001.81 1002.03 1002.66 1003.24 1003.77 1004.24 1004.75 1005.11 1005.33 1005.70 1006.04 1006.46 1006.84 1007.24 1007.66 1008.06
1007.14 1007.24 1006.34 1005.32 1004.01 1003.75 1003.76 1003.59 1004.04 1004.11 1003.95 1003.55 1002.76 1000.29 999.72 999.35 999.25 998.86 998.95 999.31 999.15 999.12 999.29 999.22 999.55 999.89 1000.43 1001.13 1001.88 1002.12 1002.76 1003.29 1003.87 1004.55 1005.02 1005.24 1005.43 1005.59 1005.85 1006.36 1006.75 1007.13 1007.52 1007.83
1007.97 1006.97 1006.83 1006.00 1005.28 1004.17 1004.11 1003.73 1003.78 1003.86 1003.86 1003.06 1002.52 1000.84 1000.44 999.63 999.23 998.94 998.83 998.84 998.69 998.67 999.21 999.49 999.97 1000.23 1000.55 1001.14 1001.56 1002.05 1002.57 1002.87 1003.58 1003.97 1004.27 1004.56 1004.77 1005.45 1005.68 1006.00 1006.51 1006.98 1007.28 1007.65
1008.15 1008.74 1008.02 1006.35 1005.33 1004.70 1004.22 1003.94 1003.79 1003.81 1003.33 1002.83 1001.93 1001.46 999.96 999.71 999.32 999.09 998.55 998.64 998.52 998.58 999.25 999.61 1000.29 1000.39 1000.66 1001.16 1001.33 1001.73 1002.14 1002.59 1003.06 1003.16 1003.45 1003.89 1004.26 1004.92 1005.62 1005.84 1006.30 1006.68 1007.10 1007.56
1008.09 1008.14 1007.86 1006.96 1006.90 1005.54 1005.08 1004.56 1004.54 1004.06 1003.78 1003.66 1002.94 1001.78 999.77 999.74 999.56 999.19 998.56 998.27 998.34 998.40 998.84 999.18 999.50 1000.27 1000.68 1001.16 1001.22 1001.56 1001.82 1002.41 1002.38 1002.73 1002.90 1003.43 1004.03 1004.62 1005.20 1005.79 1006.23 1006.70 1007.22 1007.69
1006.81 1007.41 1008.00 1007.27 1006.49 1006.00 1005.30 1004.77 1004.84 1004.78 1004.52 1003.83 1003.32 1002.13 1000.14 999.67 999.22 998.80 998.41 998.43 998.20 998.00 998.13 998.20 998.53 999.07 999.61 1000.06 1000.62 1000.67 1001.07 1001.59 1001.76 1002.19 1002.49 1003.30 1004.08 1004.10 1004.92 1005.77 1006.41 1007.00 1007.51 1007.90
1007.86 1007.71 1007.92 1007.11 1006.82 1006.17 1005.16 1004.82 1004.76 1004.23 1004.06 1003.69 1003.21 1002.19 1000.92 999.83 999.60 999.21 998.63 998.15 997.36 997.18 997.22 997.64 997.80 998.28 998.82 998.87 999.29 999.99 1000.03 1000.62 1000.98 1001.46 1002.16 1003.01 1003.63 1003.87 1004.63 1005.57 1006.45 1007.24 1007.81 1008.13
1007.04 1007.62 1007.91 1007.09 1006.73 1004.94 1003.36 1002.71 1002.78 1002.94 1002.64 1002.40 1001.99 1001.41 1000.56 999.60 999.25 999.19 998.40 997.99 997.48 996.89 996.53 996.58 996.84 997.08 997.54 998.20 999.09 999.97 1000.64 1000.77 1001.02 1001.33 1001.86 1002.60 1003.27 1004.14 1004.58 1005.41 1006.42 1007.38 1008.05 1008.58
1005.97 1006.59 1006.28 1006.08 1005.48 1004.11 1003.02 1002.05 1001.80 1001.79 1000.96 1001.31 1001.53 1000.87 999.92 999.11 999.10 997.53 997.73 997.66 997.32 996.99 996.32 995.70 995.33 995.59 996.19 996.90 997.53 998.66 999.82 1000.40 1000.72 1001.11 1001.76 1002.23 1003.01 1003.98 1004.62 1005.27 1006.28 1007.43 1008.37 1009.06
1004.11 1004.84 1005.87 1005.63 1004.60 1002.73 1000.81 1000.96 1000.92 1001.01 999.79 1000.52 1000.59 1000.20 999.19 998.64 999.04 996.02 997.18 996.95 996.31 996.21 995.94 995.70 995.34 995.31 995.60 995.83 996.74 997.76 998.70 999.54 999.92 1000.47 1001.13 1002.10 1002.93 1003.90 1004.79 1005.49 1006.53 1007.69 1008.47 1009.34
1003.75 1004.40 1004.23 1004.04 1003.42 1001.22 999.58 999.90 1000.10 1000.30 999.60 998.69 999.03 998.81 998.34 998.56 997.25 996.20 996.95 996.69 996.22 995.54 995.02 994.87 995.28 995.00 994.71 995.15 995.90 996.76 997.79 998.13 998.46 999.74 1000.83 1001.84 1002.82 1003.93 1004.97 1005.95 1006.81 1007.75 1009.02 1009.87
1002.90 1002.99 1002.67 1002.55 1001.55 999.83 998.21 997.64 998.27 997.77 997.32 996.93 997.95 998.00 998.02 997.38 996.51 996.21 996.56 996.18 995.69 995.15 994.33 994.02 994.59 994.64 994.38 994.99 995.81 996.21 996.91 997.55 999.11 999.87 1000.80 1001.83 1002.97 1004.18 1005.26 1006.22 1007.49 1008.35 1009.23 1010.21
1001.62 1000.39 1000.13 1000.45 998.97 997.60 996.18 994.78 994.70 995.83 996.62 995.90 996.29 996.44 996.59 996.38 995.69 995.61 995.69 995.27 994.94 994.50 994.00 993.41 993.46 993.94 994.22 994.64 995.09 995.93 996.89 997.74 998.48 999.87 1001.15 1002.14 1003.48 1004.58 1005.49 1006.34 1007.56 1008.77 1009.57 1010.29
1000.35 999.67 999.78 999.71 998.10 997.27 996.08 995.21 994.87 994.90 995.12 995.13 995.29 995.83 995.79 995.51 994.77 994.27 994.59 994.43 994.22 993.76 993.40 993.43 993.65 994.18 994.71 994.65 995.11 996.30 997.24 998.37 999.47 1000.04 1001.43 1002.82 1003.88 1005.15 1006.14 1007.04 1007.69 1008.64 1009.63 1010.38
1000.23 999.96 999.44 998.89 997.50 996.58 996.03 995.21 994.85 995.03 994.95 994.75 994.17 994.15 994.22 994.31 993.39 992.90 993.20 993.27 993.13 992.90 993.15 993.23 993.42 994.14 995.00 995.20 995.77 996.75 997.43 997.93 999.39 1000.31 1001.74 1003.39 1004.69 1005.63 1006.72 1007.56 1008.40 1009.07 1009.89 1010.48
1000.55 999.81 999.72 998.45 996.62 997.36 995.66 994.51 994.44 994.63 994.37 993.98 993.63 993.20 993.22 993.48 993.06 991.91 991.90 992.62 992.33 992.27 992.53 993.21 993.52 994.11 995.01 995.26 996.43 997.10 997.64 998.37 999.30 1001.13 1002.48 1003.05 1004.17 1006.29 1007.11 1007.97 1009.04 1009.76 1010.17 1010.63
Thickness
5645 5631 5637 5677 5673 5686 5688 5683 5686 5705 5726 5724 5721 5719 5740 5753 5756 5754 5767 5778 5783 5787 5812 5807 5808 5810 5818 5816 5815 5811 5805 5801 5792 5786 5779 5772 5770 5765 5759 5755 5750 5744 5739 5735
5615 5626 5671 5671 5666 5667 5671 5671 5676 5689 5706 5708 5708 5710 5727 5746 5757 5762 5772 5780 5784 5790 5798 5809 5811 5807 5807 5815 5817 5810 5808 5802 5798 5795 5792 5784 5777 5769 5764 5758 5753 5747 5739 5734
5612 5663 5663 5656 5652 5648 5658 5664 5678 5674 5691 5700 5699 5703 5716 5750 5758 5766 5770 5780 5788 5790 5793 5802 5803 5804 5804 5805 5809 5810 5809 5808 5802 5798 5788 5780 5774 5767 5762 5760 5756 5753 5744 5736
5605 5641 5640 5641 5642 5654 5648 5678 5676 5667 5660 5659 5681 5676 5710 5735 5747 5761 5768 5769 5778 5786 5792 5795 5800 5800 5798 5806 5811 5812 5809 5807 5803 5795 5788 5782 5780 5773 5773 5768 5760 5754 5748 5740
5605 5627 5633 5628 5647 5653 5661 5671 5661 5655 5653 5649 5661 5646 5720 5730 5731 5757 5765 5770 5776 5784 5787 5793 5797 5798 5807 5806 5807 5810 5807 5802 5800 5796 5789 5782 5777 5776 5771 5764 5757 5752 5748 5743
5601 5620 5621 5633 5645 5649 5663 5655 5644 5638 5632 5609 5670 5651 5712 5712 5733 5751 5765 5772 5778 5788 5789 5790 5794 5795 5798 5801 5802 5803 5802 5797 5796 5792 5786 5780 5776 5770 5764 5758 5753 5748 5746 5741
5583 5591 5617 5628 5620 5630 5631 5627 5601 5596 5585 5625 5686 5640 5701 5727 5738 5756 5760 5769 5777 5790 5785 5786 5789 5788 5791 5797 5800 5798 5796 5791 5790 5788 5783 5779 5775 5767 5762 5756 5751 5744 5739 5736
5555 5559 5588 5615 5615 5620 5627 5629 5603 5595 5609 5637 5656 5631 5707 5732 5745 5753 5758 5766 5772 5774 5778 5779 5783 5785 5789 5792 5794 5793 5791 5784 5781 5781 5779 5775 5770 5764 5760 5755 5751 5746 5741 5737
5549 5557 5600 5611 5620 5613 5617 5595 5649 5619 5626 5611 5637 5664 5702 5723 5726 5744 5751 5758 5761 5768 5775 5779 5779 5782 5784 5785 5788 5791 5786 5779 5776 5775 5770 5766 5763 5759 5755 5752 5747 5743 5739 5734
5553 5549 5578 5600 5605 5604 5606 5640 5602 5599 5587 5590 5616 5637 5664 5705 5719 5733 5747 5754 5757 5764 5777 5776 5777 5779 5782 5780 5778 5778 5775 5772 5769 5766 5763 5759 5755 5752 5748 5744 5740 5736 5732 5727
5534 5540 5556 5575 5575 5590 5594 5591 5599 5607 5603 5595 5604 5634 5678 5697 5709 5719 5734 5745 5747 5748 5760 5770 5776 5777 5772 5767 5765 5766 5764 5760 5757 5754 5750 5747 5745 5742 5740 5736 5732 5728 5723 5718
5535 5531 5534 5552 5587 5596 5594 5596 5601 5582 5590 5596 5608 5627 5682 5697 5710 5726 5729 5731 5738 5743 5749 5758 5762 5765 5762 5758 5754 5757 5753 5750 5746 5742 5739 5737 5736 5734 5732 5728 5724 5720 5715 5711
5514 5526 5526 5539 5551 5572 5567 5583 5590 5589 5593 5588 5586 5613 5677 5690 5697 5706 5716 5721 5732 5742 5742 5744 5746 5749 5751 5750 5747 5746 5744 5743 5737 5736 5736 5734 5733 5728 5725 5722 5717 5711 5707 5702
5501 5493 5501 5525 5552 5559 5565 5577 5585 5585 5574 5586 5592 5613 5654 5662 5677 5695 5709 5714 5720 5723 5728 5729 5731 5735 5738 5736 5739 5737 5735 5733 5731 5732 5733 5729 5727 5722 5715 5712 5707 5702 5697 5691
5488 5485 5497 5515 5525 5539 5545 5550 5555 5558 5566 5556 5580 5595 5644 5654 5657 5673 5690 5701 5705 5712 5718 5719 5723 5721 5722 5722 5725 5725 5726 5722 5725 5725 5726 5721 5716 5711 5705 5699 5695 5690 5683 5677
5500 5494 5485 5495 5509 5520 5527 5537 5529 5536 5544 5551 5561 5576 5633 5649 5651 5661 5675 5684 5688 5701 5707 5715 5717 5720 5718 5719 5718 5722 5721 5717 5718 5716 5714 5709 5703 5702 5695 5687 5680 5673 5667 5662
5474 5481 5474 5486 5495 5493 5495 5506 5521 5533 5537 5543 5542 5573 5615 5625 5631 5640 5653 5666 5690 5693 5701 5701 5708 5710 5712 5717 5718 5714 5716 5712 5711 5708 5705 5698 5693 5692 5684 5675 5666 5658 5652 5648
5471 5471 5468 5470 5476 5474 5508 5523 5526 5527 5539 5551 5560 5576 5596 5616 5625 5624 5644 5657 5669 5684 5693 5698 5702 5708 5708 5707 5701 5697 5693 5693 5695 5694 5694 5689 5683 5675 5671 5660 5651 5641 5635 5628
5472 5471 5466 5468 5476 5492 5503 5523 5531 5530 5543 5546 5545 5562 5583 5608 5603 5627 5641 5640 5654 5667 5682 5694 5703 5706 5705 5702 5700 5691 5682 5680 5680 5680 5676 5675 5669 5659 5654 5648 5638 5625 5616 5608
5484 5473 5459 5455 5463 5466 5524 5525 5531 5529 5518 5541 5543 5552 5574 5591 5573 5626 5624 5626 5641 5653 5663 5673 5683 5687 5689 5693 5689 5682 5677 5673 5674 5672 5666 5656 5649 5643 5636 5628 5617 5606 5600 5590
5455 5449 5453 5453 5454 5476 5525 5526 5522 5485 5512 5559 5550 5553 5563 5559 5578 5608 5598 5609 5623 5638 5655 5663 5664 5673 5684 5683 5680 5678 5673 5672 5672 5660 5650 5641 5632 5622 5613 5605 5598 5588 5577 5569
5465 5448 5455 5457 5452 5457 5531 5535 5503 5526 5540 5550 5541 5543 5544 5556 5574 5583 5582 5596 5611 5623 5639 5652 5654 5662 5667 5667 5668 5669 5665 5659 5644 5640 5632 5623 5613 5603 5595 5586 5575 5567 5559 5550
5460 5481 5485 5471 5469 5502 5529 5535 5544 5532 5523 5540 5538 5541 5543 5551 5568 5576 5581 5592 5602 5614 5629 5638 5645 5648 5652 5654 5657 5655 5645 5635 5632 5624 5614 5606 5594 5584 5576 5569 5558 5547 5539 5533
5462 5478 5463 5466 5493 5497 5512 5521 5527 5531 5528 5532 5532 5524 5530 5539 5561 5574 5574 5583 5591 5606 5616 5618 5622 5625 5625 5630 5631 5624 5620 5615 5608 5606 5596 5584 5574 5562 5554 5545 5539 5531 5522 5517
5452 5457 5464 5463 5484 5499 5502 5511 5516 5514 5513 5516 5526 5528 5531 5536 5556 5576 5577 5581 5592 5603 5597 5603 5609 5608 5603 5606 5606 5602 5601 5601 5592 5586 5575 5562 5551 5543 5533 5525 5517 5509 5503 5498
5437 5448 5445 5452 5490 5466 5492 5508 5507 5493 5498 5510 5516 5523 5525 5526 5537 5566 5577 5575 5588 5587 5586 5585 5588 5589 5589 5593 5586 5584 5584 5583 5578 5564 5554 5550 5540 5523 5516 5507 5497 5489 5485 5481